Time,TemperatureF,DewpointF,PressureIn,WindDirection,WindDirectionDegrees,WindSpeedMPH,WindSpeedGustMPH,Humidity,HourlyPrecipIn,Conditions,Clouds,dailyrainin,SoftwareType,DateUTC
2013-07-24 00:01:00,59.8,51.5,29.90,North,5,2.0,5.0,74,0.00,,,0.00,Wunderground v.1.15,2013-07-24 04:01:00,
2013-07-24 00:02:00,59.8,51.5,29.90,NE,54,2.0,5.0,74,0.00,,,0.00,Wunderground v.1.15,2013-07-24 04:02:00,
2013-07-24 00:04:00,59.8,51.5,29.90,NNE,14,2.0,5.0,74,0.00,,,0.00,Wunderground v.1.15,2013-07-24 04:04:00,
2013-07-24 00:05:00,59.8,51.5,29.90,NNE,12,2.0,4.0,74,0.00,,,0.00,Wunderground v.1.15,2013-07-24 04:05:00,
2013-07-24 00:06:00,59.8,51.5,29.90,NNE,13,2.0,5.0,74,0.00,,,0.00,Wunderground v.1.15,2013-07-24 04:06:00,
2013-07-24 00:11:00,59.7,51.4,29.90,NNE,33,2.0,5.0,74,0.00,,,0.00,Wunderground v.1.15,2013-07-24 04:11:00,
2013-07-24 00:16:00,59.6,51.3,29.90,NNW,327,2.0,4.0,74,0.00,,,0.00,Wunderground v.1.15,2013-07-24 04:16:00,
2013-07-24 00:22:00,59.6,51.3,29.90,NE,38,3.0,5.0,74,0.00,,,0.00,Wunderground v.1.15,2013-07-24 04:22:00,
2013-07-24 00:27:00,59.6,51.3,29.91,NE,45,3.0,4.0,74,0.00,,,0.00,Wunderground v.1.15,2013-07-24 04:27:00,
2013-07-24 00:33:00,59.5,51.6,29.90,NE,48,2.0,9.0,75,0.00,,,0.00,Wunderground v.1.15,2013-07-24 04:33:00,
2013-07-24 00:39:00,59.5,51.6,29.91,NNE,31,3.0,5.0,75,0.00,,,0.00,Wunderground v.1.15,2013-07-24 04:39:00,
2013-07-24 00:45:00,59.4,51.5,29.91,North,350,2.0,6.0,75,0.00,,,0.00,Wunderground v.1.15,2013-07-24 04:45:00,
2013-07-24 00:50:00,59.4,51.5,29.91,North,360,2.0,2.0,75,0.00,,,0.00,Wunderground v.1.15,2013-07-24 04:50:00,
2013-07-24 00:55:00,59.3,51.4,29.92,NNE,24,2.0,4.0,75,0.00,,,0.00,Wunderground v.1.15,2013-07-24 04:55:00,
2013-07-24 01:01:00,59.3,51.4,29.92,North,349,2.0,5.0,75,0.00,,,0.00,Wunderground v.1.15,2013-07-24 05:01:00,
2013-07-24 01:07:00,59.3,51.4,29.92,North,5,2.0,3.0,75,0.00,,,0.00,Wunderground v.1.15,2013-07-24 05:07:00,
2013-07-24 01:13:00,59.3,51.4,29.92,NNE,22,1.0,5.0,75,0.00,,,0.00,Wunderground v.1.15,2013-07-24 05:13:00,
2013-07-24 01:19:00,59.3,51.4,29.92,North,350,1.0,4.0,75,0.00,,,0.00,Wunderground v.1.15,2013-07-24 05:19:00,
2013-07-24 01:24:00,59.3,51.4,29.92,NNE,33,1.0,4.0,75,0.00,,,0.00,Wunderground v.1.15,2013-07-24 05:24:00,
2013-07-24 01:29:00,59.3,51.0,29.92,NE,41,2.0,5.0,74,0.00,,,0.00,Wunderground v.1.15,2013-07-24 05:29:00,
2013-07-24 01:35:00,59.4,50.4,29.92,NNE,12,3.0,3.0,72,0.00,,,0.00,Wunderground v.1.15,2013-07-24 05:35:00,
2013-07-24 01:40:00,59.5,50.5,29.92,NE,36,3.0,5.0,72,0.00,,,0.00,Wunderground v.1.15,2013-07-24 05:40:00,
2013-07-24 01:46:00,59.5,50.1,29.92,NE,52,3.0,3.0,71,0.00,,,0.00,Wunderground v.1.15,2013-07-24 05:46:00,
2013-07-24 01:51:00,59.6,50.6,29.92,NNE,18,2.0,3.0,72,0.00,,,0.00,Wunderground v.1.15,2013-07-24 05:51:00,
2013-07-24 01:57:00,59.5,50.5,29.92,NNE,32,2.0,4.0,72,0.00,,,0.00,Wunderground v.1.15,2013-07-24 05:57:00,
2013-07-24 02:03:00,59.4,50.4,29.92,ENE,65,2.0,8.0,72,0.00,,,0.00,Wunderground v.1.15,2013-07-24 06:03:00,
2013-07-24 02:08:00,59.3,50.6,29.93,NNE,24,2.0,6.0,73,0.00,,,0.00,Wunderground v.1.15,2013-07-24 06:08:00,
2013-07-24 02:14:00,59.2,50.5,29.93,North,355,2.0,6.0,73,0.00,,,0.00,Wunderground v.1.15,2013-07-24 06:14:00,
2013-07-24 02:19:00,59.1,50.5,29.93,NE,34,2.0,4.0,73,0.00,,,0.00,Wunderground v.1.15,2013-07-24 06:19:00,
2013-07-24 02:25:00,59.0,50.4,29.93,NE,37,2.0,2.0,73,0.00,,,0.00,Wunderground v.1.15,2013-07-24 06:25:00,
2013-07-24 02:31:00,59.0,50.4,29.93,NE,35,2.0,4.0,73,0.00,,,0.00,Wunderground v.1.15,2013-07-24 06:31:00,
2013-07-24 02:36:00,59.0,50.4,29.92,NE,36,1.0,3.0,73,0.00,,,0.00,Wunderground v.1.15,2013-07-24 06:36:00,
2013-07-24 02:42:00,59.0,50.4,29.92,NNE,30,2.0,4.0,73,0.00,,,0.00,Wunderground v.1.15,2013-07-24 06:42:00,
2013-07-24 02:47:00,59.0,50.7,29.92,North,10,2.0,7.0,74,0.00,,,0.00,Wunderground v.1.15,2013-07-24 06:47:00,
2013-07-24 02:53:00,59.0,50.7,29.92,NNE,32,2.0,7.0,74,0.00,,,0.00,Wunderground v.1.15,2013-07-24 06:53:00,
2013-07-24 02:58:00,58.9,50.6,29.92,NNE,15,3.0,4.0,74,0.00,,,0.00,Wunderground v.1.15,2013-07-24 06:58:00,
2013-07-24 03:04:00,58.7,50.4,29.92,NE,44,3.0,4.0,74,0.00,,,0.00,Wunderground v.1.15,2013-07-24 07:04:00,
2013-07-24 03:09:00,58.7,50.4,29.92,NNE,29,3.0,6.0,74,0.00,,,0.00,Wunderground v.1.15,2013-07-24 07:09:00,
2013-07-24 03:14:00,58.6,50.3,29.93,NNE,24,2.0,6.0,74,0.00,,,0.00,Wunderground v.1.15,2013-07-24 07:14:00,
2013-07-24 03:20:00,58.5,50.6,29.93,NE,36,2.0,3.0,75,0.00,,,0.00,Wunderground v.1.15,2013-07-24 07:20:00,
2013-07-24 03:25:00,58.5,50.2,29.93,North,355,2.0,4.0,74,0.00,,,0.00,Wunderground v.1.15,2013-07-24 07:25:00,
2013-07-24 03:31:00,58.4,50.1,29.93,NNE,30,2.0,4.0,74,0.00,,,0.00,Wunderground v.1.15,2013-07-24 07:31:00,
2013-07-24 03:36:00,58.3,50.0,29.93,NNE,26,1.0,2.0,74,0.00,,,0.00,Wunderground v.1.15,2013-07-24 07:36:00,
2013-07-24 03:41:00,58.2,50.3,29.93,NNE,18,1.0,4.0,75,0.00,,,0.00,Wunderground v.1.15,2013-07-24 07:41:00,
2013-07-24 03:47:00,58.0,49.8,29.93,NNE,31,2.0,3.0,74,0.00,,,0.00,Wunderground v.1.15,2013-07-24 07:47:00,
2013-07-24 03:52:00,57.8,49.6,29.93,North,10,2.0,4.0,74,0.00,,,0.00,Wunderground v.1.15,2013-07-24 07:52:00,
2013-07-24 03:58:00,57.6,49.4,29.93,North,360,2.0,4.0,74,0.00,,,0.00,Wunderground v.1.15,2013-07-24 07:58:00,
2013-07-24 04:03:00,57.4,49.5,29.93,North,355,3.0,4.0,75,0.00,,,0.00,Wunderground v.1.15,2013-07-24 08:03:00,
2013-07-24 04:09:00,57.2,49.3,29.93,NNE,30,2.0,3.0,75,0.00,,,0.00,Wunderground v.1.15,2013-07-24 08:09:00,
2013-07-24 04:15:00,57.0,49.5,29.93,NE,40,2.0,2.0,76,0.00,,,0.00,Wunderground v.1.15,2013-07-24 08:15:00,
2013-07-24 04:20:00,56.8,49.7,29.93,NE,38,1.0,3.0,77,0.00,,,0.00,Wunderground v.1.15,2013-07-24 08:20:00,
2013-07-24 04:26:00,56.6,49.5,29.93,NNE,15,2.0,2.0,77,0.00,,,0.00,Wunderground v.1.15,2013-07-24 08:26:00,
2013-07-24 04:31:00,56.4,49.3,29.93,North,355,2.0,5.0,77,0.00,,,0.00,Wunderground v.1.15,2013-07-24 08:31:00,
2013-07-24 04:37:00,56.2,49.1,29.93,NNE,19,2.0,2.0,77,0.00,,,0.00,Wunderground v.1.15,2013-07-24 08:37:00,
2013-07-24 04:42:00,56.0,48.9,29.93,NNE,29,2.0,4.0,77,0.00,,,0.00,Wunderground v.1.15,2013-07-24 08:42:00,
2013-07-24 04:47:00,55.7,48.6,29.93,NNE,29,1.0,2.0,77,0.00,,,0.00,Wunderground v.1.15,2013-07-24 08:47:00,
2013-07-24 04:52:00,55.5,48.8,29.94,NNE,29,1.0,2.0,78,0.00,,,0.00,Wunderground v.1.15,2013-07-24 08:52:00,
2013-07-24 04:59:00,55.1,48.4,29.94,NNE,15,1.0,2.0,78,0.00,,,0.00,Wunderground v.1.15,2013-07-24 08:59:00,
2013-07-24 05:04:00,54.8,48.4,29.94,NNE,17,1.0,2.0,79,0.00,,,0.00,Wunderground v.1.15,2013-07-24 09:04:00,
2013-07-24 05:09:00,54.5,48.1,29.94,NNE,15,1.0,2.0,79,0.00,,,0.00,Wunderground v.1.15,2013-07-24 09:09:00,
2013-07-24 05:15:00,54.2,47.8,29.94,NE,43,1.0,1.0,79,0.00,,,0.00,Wunderground v.1.15,2013-07-24 09:15:00,
2013-07-24 05:20:00,53.9,47.9,29.94,NE,35,1.0,3.0,80,0.00,,,0.00,Wunderground v.1.15,2013-07-24 09:20:00,
2013-07-24 05:26:00,53.7,47.7,29.94,NE,35,1.0,1.0,80,0.00,,,0.00,Wunderground v.1.15,2013-07-24 09:26:00,
2013-07-24 05:31:00,53.4,47.7,29.94,NE,34,1.0,3.0,81,0.00,,,0.00,Wunderground v.1.15,2013-07-24 09:31:00,
2013-07-24 05:37:00,53.1,47.4,29.94,NNE,33,1.0,1.0,81,0.00,,,0.00,Wunderground v.1.15,2013-07-24 09:37:00,
2013-07-24 05:42:00,52.9,47.6,29.95,NNE,33,0.0,2.0,82,0.00,,,0.00,Wunderground v.1.15,2013-07-24 09:42:00,
2013-07-24 05:48:00,52.6,47.3,29.95,North,360,1.0,3.0,82,0.00,,,0.00,Wunderground v.1.15,2013-07-24 09:48:00,
2013-07-24 05:54:00,52.4,47.4,29.95,NNW,342,2.0,4.0,83,0.00,,,0.00,Wunderground v.1.15,2013-07-24 09:54:00,
2013-07-24 05:59:00,52.3,47.3,29.96,ENE,57,2.0,2.0,83,0.00,,,0.00,Wunderground v.1.15,2013-07-24 09:59:00,
2013-07-24 06:05:00,52.1,47.4,29.96,NE,53,1.0,2.0,84,0.00,,,0.00,Wunderground v.1.15,2013-07-24 10:05:00,
2013-07-24 06:10:00,51.9,47.2,29.96,NE,53,1.0,2.0,84,0.00,,,0.00,Wunderground v.1.15,2013-07-24 10:10:00,
2013-07-24 06:16:00,51.7,47.3,29.96,NE,45,0.0,3.0,85,0.00,,,0.00,Wunderground v.1.15,2013-07-24 10:16:00,
2013-07-24 06:21:00,51.7,47.3,29.97,NE,41,1.0,4.0,85,0.00,,,0.00,Wunderground v.1.15,2013-07-24 10:21:00,
2013-07-24 06:27:00,51.5,47.5,29.97,NE,37,1.0,3.0,86,0.00,,,0.00,Wunderground v.1.15,2013-07-24 10:27:00,
2013-07-24 06:32:00,51.5,47.5,29.97,NNE,30,1.0,3.0,86,0.00,,,0.00,Wunderground v.1.15,2013-07-24 10:32:00,
2013-07-24 06:37:00,51.4,47.4,29.97,NNE,29,1.0,1.0,86,0.00,,,0.00,Wunderground v.1.15,2013-07-24 10:37:00,
2013-07-24 06:43:00,51.5,47.5,29.98,North,360,1.0,2.0,86,0.00,,,0.00,Wunderground v.1.15,2013-07-24 10:43:00,
2013-07-24 06:48:00,51.6,47.5,29.98,North,9,1.0,3.0,86,0.00,,,0.00,Wunderground v.1.15,2013-07-24 10:48:00,
2013-07-24 06:54:00,51.7,47.6,29.98,NNE,20,1.0,4.0,86,0.00,,,0.00,Wunderground v.1.15,2013-07-24 10:54:00,
2013-07-24 07:00:00,51.7,47.6,29.98,North,350,2.0,4.0,86,0.00,,,0.00,Wunderground v.1.15,2013-07-24 11:00:00,
2013-07-24 07:05:00,51.7,47.6,29.98,North,355,2.0,4.0,86,0.00,,,0.00,Wunderground v.1.15,2013-07-24 11:05:00,
2013-07-24 07:10:00,51.7,47.6,29.98,NNW,345,2.0,5.0,86,0.00,,,0.00,Wunderground v.1.15,2013-07-24 11:10:00,
2013-07-24 07:16:00,51.8,47.7,29.98,North,360,2.0,2.0,86,0.00,,,0.00,Wunderground v.1.15,2013-07-24 11:16:00,
2013-07-24 07:21:00,51.8,48.1,29.99,NNW,346,1.0,3.0,87,0.00,,,0.00,Wunderground v.1.15,2013-07-24 11:21:00,
2013-07-24 07:27:00,51.9,48.2,29.99,NNE,17,2.0,2.0,87,0.00,,,0.00,Wunderground v.1.15,2013-07-24 11:27:00,
2013-07-24 07:32:00,52.1,48.3,29.99,NNW,334,2.0,6.0,87,0.00,,,0.00,Wunderground v.1.15,2013-07-24 11:32:00,
2013-07-24 07:37:00,52.3,48.5,29.99,NE,42,3.0,4.0,87,0.00,,,0.00,Wunderground v.1.15,2013-07-24 11:37:00,
2013-07-24 07:43:00,52.4,48.6,29.99,NNE,30,3.0,4.0,87,0.00,,,0.00,Wunderground v.1.15,2013-07-24 11:43:00,
2013-07-24 07:49:00,52.7,48.9,29.99,North,355,3.0,4.0,87,0.00,,,0.00,Wunderground v.1.15,2013-07-24 11:49:00,
2013-07-24 07:54:00,52.8,48.7,29.99,NNE,18,3.0,10.0,86,0.00,,,0.00,Wunderground v.1.15,2013-07-24 11:54:00,
2013-07-24 08:00:00,53.1,49.3,29.99,North,350,3.0,4.0,87,0.00,,,0.00,Wunderground v.1.15,2013-07-24 12:00:00,
2013-07-24 08:05:00,53.2,49.1,30.00,NNE,29,2.0,2.0,86,0.00,,,0.00,Wunderground v.1.15,2013-07-24 12:05:00,
2013-07-24 08:11:00,53.6,49.5,30.00,North,351,3.0,5.0,86,0.00,,,0.00,Wunderground v.1.15,2013-07-24 12:11:00,
2013-07-24 08:16:00,53.8,49.7,30.01,NNW,346,3.0,3.0,86,0.00,,,0.00,Wunderground v.1.15,2013-07-24 12:16:00,
2013-07-24 08:22:00,54.1,50.0,30.01,NE,48,2.0,4.0,86,0.00,,,0.00,Wunderground v.1.15,2013-07-24 12:22:00,
2013-07-24 08:28:00,54.6,50.5,30.01,NNE,25,2.0,2.0,86,0.00,,,0.00,Wunderground v.1.15,2013-07-24 12:28:00,
2013-07-24 08:34:00,55.0,50.6,30.01,NNE,30,2.0,3.0,85,0.00,,,0.00,Wunderground v.1.15,2013-07-24 12:34:00,
2013-07-24 08:40:00,55.3,50.9,30.01,North,349,2.0,5.0,85,0.00,,,0.00,Wunderground v.1.15,2013-07-24 12:40:00,
2013-07-24 08:46:00,55.7,51.3,30.01,East,96,2.0,4.0,85,0.00,,,0.00,Wunderground v.1.15,2013-07-24 12:46:00,
2013-07-24 08:51:00,56.0,51.2,30.01,NE,51,3.0,4.0,84,0.00,,,0.00,Wunderground v.1.15,2013-07-24 12:51:00,
2013-07-24 08:56:00,56.5,51.4,30.01,NNE,22,3.0,5.0,83,0.00,,,0.00,Wunderground v.1.15,2013-07-24 12:56:00,
2013-07-24 09:02:00,57.2,51.8,30.01,East,79,3.0,5.0,82,0.00,,,0.00,Wunderground v.1.15,2013-07-24 13:02:00,
2013-07-24 09:08:00,57.9,52.4,30.01,NE,52,2.0,2.0,82,0.00,,,0.00,Wunderground v.1.15,2013-07-24 13:08:00,
2013-07-24 09:14:00,59.0,53.2,30.01,East,83,1.0,4.0,81,0.00,,,0.00,Wunderground v.1.15,2013-07-24 13:14:00,
2013-07-24 09:19:00,59.6,52.7,30.02,NE,51,1.0,4.0,78,0.00,,,0.00,Wunderground v.1.15,2013-07-24 13:19:00,
2013-07-24 09:24:00,59.9,53.0,30.02,NE,38,1.0,3.0,78,0.00,,,0.00,Wunderground v.1.15,2013-07-24 13:24:00,
2013-07-24 09:30:00,60.0,52.8,30.02,NNE,30,3.0,6.0,77,0.00,,,0.00,Wunderground v.1.15,2013-07-24 13:30:00,
2013-07-24 09:36:00,60.5,52.5,30.02,ENE,71,4.0,4.0,75,0.00,,,0.00,Wunderground v.1.15,2013-07-24 13:36:00,
2013-07-24 09:41:00,60.6,51.9,30.02,ENE,68,3.0,5.0,73,0.00,,,0.00,Wunderground v.1.15,2013-07-24 13:41:00,
2013-07-24 09:47:00,60.5,52.2,30.02,NE,55,2.0,2.0,74,0.00,,,0.00,Wunderground v.1.15,2013-07-24 13:47:00,
2013-07-24 09:52:00,60.3,52.0,30.03,East,88,1.0,5.0,74,0.00,,,0.00,Wunderground v.1.15,2013-07-24 13:52:00,
2013-07-24 09:58:00,60.0,51.7,30.03,ENE,76,2.0,5.0,74,0.00,,,0.00,Wunderground v.1.15,2013-07-24 13:58:00,
2013-07-24 10:04:00,59.8,51.5,30.02,NE,53,2.0,5.0,74,0.00,,,0.00,Wunderground v.1.15,2013-07-24 14:04:00,
2013-07-24 10:09:00,59.7,52.1,30.03,NE,45,1.0,4.0,76,0.00,,,0.00,Wunderground v.1.15,2013-07-24 14:09:00,
2013-07-24 10:14:00,60.0,51.7,30.03,NE,36,2.0,12.0,74,0.00,,,0.00,Wunderground v.1.15,2013-07-24 14:14:00,
2013-07-24 10:19:00,60.3,52.3,30.03,East,84,3.0,3.0,75,0.00,,,0.00,Wunderground v.1.15,2013-07-24 14:19:00,
2013-07-24 10:25:00,60.4,51.7,30.04,ENE,59,1.0,2.0,73,0.00,,,0.00,Wunderground v.1.15,2013-07-24 14:25:00,
2013-07-24 10:30:00,60.2,51.1,30.04,North,360,1.0,5.0,72,0.00,,,0.00,Wunderground v.1.15,2013-07-24 14:30:00,
2013-07-24 10:36:00,60.2,51.9,30.04,NNE,28,2.0,2.0,74,0.00,,,0.00,Wunderground v.1.15,2013-07-24 14:36:00,
2013-07-24 10:41:00,60.7,51.6,30.04,NE,48,3.0,4.0,72,0.00,,,0.00,Wunderground v.1.15,2013-07-24 14:41:00,
2013-07-24 10:46:00,60.8,51.7,30.04,ENE,64,3.0,5.0,72,0.00,,,0.00,Wunderground v.1.15,2013-07-24 14:46:00,
2013-07-24 10:52:00,60.5,51.8,30.04,NNE,28,3.0,6.0,73,0.00,,,0.00,Wunderground v.1.15,2013-07-24 14:52:00,
2013-07-24 10:58:00,60.6,51.9,30.04,North,360,3.0,5.0,73,0.00,,,0.00,Wunderground v.1.15,2013-07-24 14:58:00,
2013-07-24 11:03:00,60.8,52.1,30.04,NNE,25,3.0,9.0,73,0.00,,,0.00,Wunderground v.1.15,2013-07-24 15:03:00,
2013-07-24 11:09:00,60.9,51.8,30.04,North,350,3.0,4.0,72,0.00,,,0.00,Wunderground v.1.15,2013-07-24 15:09:00,
2013-07-24 11:14:00,62.0,52.9,30.04,ENE,65,3.0,3.0,72,0.00,,,0.00,Wunderground v.1.15,2013-07-24 15:14:00,
2013-07-24 11:19:00,63.2,52.9,30.04,ENE,77,3.0,5.0,69,0.00,,,0.00,Wunderground v.1.15,2013-07-24 15:19:00,
2013-07-24 11:25:00,64.1,52.1,30.04,ESE,117,2.0,2.0,65,0.00,,,0.00,Wunderground v.1.15,2013-07-24 15:25:00,
2013-07-24 11:30:00,64.7,52.7,30.04,NNE,33,2.0,5.0,65,0.00,,,0.00,Wunderground v.1.15,2013-07-24 15:30:00,
2013-07-24 11:36:00,64.7,52.7,30.04,NE,55,2.0,2.0,65,0.00,,,0.00,Wunderground v.1.15,2013-07-24 15:36:00,
2013-07-24 11:41:00,64.9,53.3,30.04,SSE,162,1.0,5.0,66,0.00,,,0.00,Wunderground v.1.15,2013-07-24 15:41:00,
2013-07-24 11:47:00,65.6,53.1,30.04,NE,40,2.0,4.0,64,0.00,,,0.00,Wunderground v.1.15,2013-07-24 15:47:00,
2013-07-24 11:52:00,65.9,52.9,30.04,NE,34,2.0,4.0,63,0.00,,,0.00,Wunderground v.1.15,2013-07-24 15:52:00,
2013-07-24 11:58:00,66.1,53.1,30.04,ESE,110,2.0,2.0,63,0.00,,,0.00,Wunderground v.1.15,2013-07-24 15:58:00,
2013-07-24 12:04:00,66.1,53.1,30.05,ENE,65,2.0,5.0,63,0.00,,,0.00,Wunderground v.1.15,2013-07-24 16:04:00,
2013-07-24 12:10:00,65.6,52.2,30.04,NNE,21,1.0,1.0,62,0.00,,,0.00,Wunderground v.1.15,2013-07-24 16:10:00,
2013-07-24 12:15:00,65.4,52.0,30.04,NE,45,2.0,4.0,62,0.00,,,0.00,Wunderground v.1.15,2013-07-24 16:15:00,
2013-07-24 12:21:00,65.8,52.0,30.05,NE,55,3.0,4.0,61,0.00,,,0.00,Wunderground v.1.15,2013-07-24 16:21:00,
2013-07-24 12:26:00,66.3,54.2,30.05,East,95,1.0,2.0,65,0.00,,,0.00,Wunderground v.1.15,2013-07-24 16:26:00,
2013-07-24 12:32:00,66.5,53.5,30.05,ENE,64,2.0,6.0,63,0.00,,,0.00,Wunderground v.1.15,2013-07-24 16:32:00,
2013-07-24 12:36:00,66.0,52.2,30.05,NNE,23,3.0,5.0,61,0.00,,,0.00,Wunderground v.1.15,2013-07-24 16:36:00,
2013-07-24 12:42:00,65.9,52.5,30.05,NE,37,4.0,5.0,62,0.00,,,0.00,Wunderground v.1.15,2013-07-24 16:42:00,
2013-07-24 12:47:00,65.4,51.6,30.05,ENE,59,2.0,4.0,61,0.00,,,0.00,Wunderground v.1.15,2013-07-24 16:47:00,
2013-07-24 12:52:00,65.6,53.1,30.05,NE,53,2.0,4.0,64,0.00,,,0.00,Wunderground v.1.15,2013-07-24 16:52:00,
2013-07-24 12:58:00,65.9,52.5,30.05,NNE,32,1.0,6.0,62,0.00,,,0.00,Wunderground v.1.15,2013-07-24 16:58:00,
2013-07-24 13:04:00,66.7,54.1,30.05,SE,128,1.0,6.0,64,0.00,,,0.00,Wunderground v.1.15,2013-07-24 17:04:00,
2013-07-24 13:09:00,67.5,53.6,30.05,SSE,157,1.0,4.0,61,0.00,,,0.00,Wunderground v.1.15,2013-07-24 17:09:00,
2013-07-24 13:15:00,68.1,53.7,30.05,East,81,1.0,3.0,60,0.00,,,0.00,Wunderground v.1.15,2013-07-24 17:15:00,
2013-07-24 13:20:00,68.1,53.2,30.05,SE,126,2.0,3.0,59,0.00,,,0.00,Wunderground v.1.15,2013-07-24 17:20:00,
2013-07-24 13:26:00,68.3,52.9,30.05,East,91,1.0,3.0,58,0.00,,,0.00,Wunderground v.1.15,2013-07-24 17:26:00,
2013-07-24 13:32:00,68.3,53.9,30.05,SE,135,2.0,6.0,60,0.00,,,0.00,Wunderground v.1.15,2013-07-24 17:32:00,
2013-07-24 13:37:00,68.6,53.7,30.05,NNE,33,2.0,5.0,59,0.00,,,0.00,Wunderground v.1.15,2013-07-24 17:37:00,
2013-07-24 13:43:00,68.5,53.1,30.05,ENE,70,2.0,5.0,58,0.00,,,0.00,Wunderground v.1.15,2013-07-24 17:43:00,
2013-07-24 13:48:00,68.2,52.9,30.04,ENE,77,2.0,6.0,58,0.00,,,0.00,Wunderground v.1.15,2013-07-24 17:48:00,
2013-07-24 13:54:00,67.8,53.4,30.05,NNE,30,2.0,6.0,60,0.00,,,0.00,Wunderground v.1.15,2013-07-24 17:54:00,
2013-07-24 13:59:00,67.3,53.4,30.05,NE,34,2.0,6.0,61,0.00,,,0.00,Wunderground v.1.15,2013-07-24 17:59:00,
2013-07-24 14:05:00,66.7,52.8,30.04,ENE,57,2.0,4.0,61,0.00,,,0.00,Wunderground v.1.15,2013-07-24 18:05:00,
2013-07-24 14:10:00,66.8,53.4,30.04,NNW,348,2.0,4.0,62,0.00,,,0.00,Wunderground v.1.15,2013-07-24 18:10:00,
2013-07-24 14:15:00,66.7,53.7,30.04,North,360,2.0,3.0,63,0.00,,,0.00,Wunderground v.1.15,2013-07-24 18:15:00,
2013-07-24 14:21:00,66.6,52.7,30.04,NNE,32,2.0,5.0,61,0.00,,,0.00,Wunderground v.1.15,2013-07-24 18:21:00,
2013-07-24 14:26:00,67.1,52.7,30.04,NE,47,2.0,2.0,60,0.00,,,0.00,Wunderground v.1.15,2013-07-24 18:26:00,
2013-07-24 14:32:00,67.7,54.2,30.03,NE,34,1.0,6.0,62,0.00,,,0.00,Wunderground v.1.15,2013-07-24 18:32:00,
2013-07-24 14:38:00,68.2,53.8,30.04,ENE,77,1.0,2.0,60,0.00,,,0.00,Wunderground v.1.15,2013-07-24 18:38:00,
2013-07-24 14:44:00,68.3,54.3,30.04,NE,46,1.0,5.0,61,0.00,,,0.00,Wunderground v.1.15,2013-07-24 18:44:00,
2013-07-24 14:50:00,68.8,53.9,30.04,ENE,63,2.0,4.0,59,0.00,,,0.00,Wunderground v.1.15,2013-07-24 18:50:00,
2013-07-24 14:56:00,69.4,54.4,30.04,ENE,59,1.0,1.0,59,0.00,,,0.00,Wunderground v.1.15,2013-07-24 18:56:00,
2013-07-24 15:02:00,69.9,54.9,30.04,East,91,1.0,1.0,59,0.00,,,0.00,Wunderground v.1.15,2013-07-24 19:02:00,
2013-07-24 15:08:00,70.7,54.2,30.04,NE,43,2.0,6.0,56,0.00,,,0.00,Wunderground v.1.15,2013-07-24 19:08:00,
2013-07-24 15:13:00,70.9,52.9,30.04,East,88,1.0,6.0,53,0.00,,,0.00,Wunderground v.1.15,2013-07-24 19:13:00,
2013-07-24 15:18:00,71.0,52.5,30.03,ESE,119,1.0,5.0,52,0.00,,,0.00,Wunderground v.1.15,2013-07-24 19:18:00,
2013-07-24 15:24:00,70.6,54.1,30.03,NE,36,2.0,2.0,56,0.00,,,0.00,Wunderground v.1.15,2013-07-24 19:24:00,
2013-07-24 15:30:00,70.3,52.9,30.03,ENE,78,1.0,2.0,54,0.00,,,0.00,Wunderground v.1.15,2013-07-24 19:30:00,
2013-07-24 15:36:00,70.2,52.8,30.03,SE,142,1.0,1.0,54,0.00,,,0.00,Wunderground v.1.15,2013-07-24 19:36:00,
2013-07-24 15:42:00,70.1,53.2,30.03,ESE,121,1.0,3.0,55,0.00,,,0.00,Wunderground v.1.15,2013-07-24 19:42:00,
2013-07-24 15:47:00,69.8,52.9,30.03,ENE,59,2.0,4.0,55,0.00,,,0.00,Wunderground v.1.15,2013-07-24 19:47:00,
2013-07-24 15:52:00,69.7,53.8,30.03,NE,51,1.0,4.0,57,0.00,,,0.00,Wunderground v.1.15,2013-07-24 19:52:00,
2013-07-24 15:58:00,70.0,55.0,30.03,NE,52,1.0,1.0,59,0.00,,,0.00,Wunderground v.1.15,2013-07-24 19:58:00,
2013-07-24 16:04:00,70.5,54.0,30.03,ENE,72,1.0,2.0,56,0.00,,,0.00,Wunderground v.1.15,2013-07-24 20:04:00,
2013-07-24 16:07:00,70.6,53.1,30.03,ENE,67,1.0,1.0,54,0.00,,,0.00,Wunderground v.1.15,2013-07-24 20:07:00,
2013-07-24 16:13:00,70.7,52.7,30.03,NNE,26,1.0,4.0,53,0.00,,,0.00,Wunderground v.1.15,2013-07-24 20:13:00,
2013-07-24 16:18:00,71.1,54.1,30.03,NNE,24,1.0,4.0,55,0.00,,,0.00,Wunderground v.1.15,2013-07-24 20:18:00,
2013-07-24 16:24:00,71.2,54.2,30.04,East,86,1.0,4.0,55,0.00,,,0.00,Wunderground v.1.15,2013-07-24 20:24:00,
2013-07-24 16:29:00,70.8,53.8,30.03,SE,144,1.0,3.0,55,0.00,,,0.00,Wunderground v.1.15,2013-07-24 20:29:00,
2013-07-24 16:35:00,70.4,54.4,30.03,SE,134,1.0,1.0,57,0.00,,,0.00,Wunderground v.1.15,2013-07-24 20:35:00,
2013-07-24 16:41:00,70.9,54.9,30.03,SE,146,1.0,2.0,57,0.00,,,0.00,Wunderground v.1.15,2013-07-24 20:41:00,
2013-07-24 16:47:00,70.8,53.8,30.03,SE,144,1.0,3.0,55,0.00,,,0.00,Wunderground v.1.15,2013-07-24 20:47:00,
2013-07-24 16:52:00,70.6,53.6,30.03,SE,137,1.0,3.0,55,0.00,,,0.00,Wunderground v.1.15,2013-07-24 20:52:00,
2013-07-24 16:57:00,70.9,53.9,30.03,ENE,75,1.0,1.0,55,0.00,,,0.00,Wunderground v.1.15,2013-07-24 20:57:00,
2013-07-24 17:03:00,71.2,55.2,30.03,ENE,61,1.0,2.0,57,0.00,,,0.00,Wunderground v.1.15,2013-07-24 21:03:00,
2013-07-24 17:08:00,71.5,52.4,30.03,East,89,1.0,3.0,51,0.00,,,0.00,Wunderground v.1.15,2013-07-24 21:08:00,
2013-07-24 17:13:00,72.0,53.9,30.03,ENE,74,1.0,3.0,53,0.00,,,0.00,Wunderground v.1.15,2013-07-24 21:13:00,
2013-07-24 17:18:00,72.5,54.9,30.03,SE,134,1.0,7.0,54,0.00,,,0.00,Wunderground v.1.15,2013-07-24 21:18:00,
2013-07-24 17:24:00,71.5,53.5,30.03,SSE,157,2.0,8.0,53,0.00,,,0.00,Wunderground v.1.15,2013-07-24 21:24:00,
2013-07-24 17:29:00,70.8,54.3,30.03,SSE,157,1.0,2.0,56,0.00,,,0.00,Wunderground v.1.15,2013-07-24 21:29:00,
2013-07-24 17:34:00,70.2,52.8,30.03,East,83,0.0,3.0,54,0.00,,,0.00,Wunderground v.1.15,2013-07-24 21:34:00,
2013-07-24 17:40:00,70.4,53.0,30.03,East,83,0.0,0.0,54,0.00,,,0.00,Wunderground v.1.15,2013-07-24 21:40:00,
2013-07-24 17:46:00,71.2,55.2,30.03,East,89,0.0,2.0,57,0.00,,,0.00,Wunderground v.1.15,2013-07-24 21:46:00,
2013-07-24 17:51:00,72.0,53.9,30.03,ENE,74,0.0,2.0,53,0.00,,,0.00,Wunderground v.1.15,2013-07-24 21:51:00,
2013-07-24 17:56:00,72.2,54.1,30.02,North,350,1.0,5.0,53,0.00,,,0.00,Wunderground v.1.15,2013-07-24 21:56:00,
2013-07-24 18:03:00,71.5,53.5,30.02,NNE,28,2.0,5.0,53,0.00,,,0.00,Wunderground v.1.15,2013-07-24 22:03:00,
2013-07-24 18:08:00,71.1,54.6,30.02,NNE,33,1.0,2.0,56,0.00,,,0.00,Wunderground v.1.15,2013-07-24 22:08:00,
2013-07-24 18:13:00,70.8,52.8,30.02,NNE,33,0.0,2.0,53,0.00,,,0.00,Wunderground v.1.15,2013-07-24 22:13:00,
2013-07-24 18:18:00,71.1,54.6,30.02,NNE,32,0.0,0.0,56,0.00,,,0.00,Wunderground v.1.15,2013-07-24 22:18:00,
2013-07-24 18:24:00,71.1,54.1,30.02,NNE,25,1.0,2.0,55,0.00,,,0.00,Wunderground v.1.15,2013-07-24 22:24:00,
2013-07-24 18:29:00,71.2,53.2,30.02,East,83,1.0,1.0,53,0.00,,,0.00,Wunderground v.1.15,2013-07-24 22:29:00,
2013-07-24 18:35:00,71.6,53.6,30.02,ENE,78,1.0,1.0,53,0.00,,,0.00,Wunderground v.1.15,2013-07-24 22:35:00,
2013-07-24 18:40:00,71.6,53.0,30.03,ENE,78,1.0,1.0,52,0.00,,,0.00,Wunderground v.1.15,2013-07-24 22:40:00,
2013-07-24 18:46:00,71.6,53.6,30.03,ENE,77,0.0,0.0,53,0.00,,,0.00,Wunderground v.1.15,2013-07-24 22:46:00,
2013-07-24 18:51:00,71.4,53.4,30.02,ENE,77,0.0,0.0,53,0.00,,,0.00,Wunderground v.1.15,2013-07-24 22:51:00,
2013-07-24 18:57:00,71.3,53.3,30.02,ENE,77,0.0,0.0,53,0.00,,,0.00,Wunderground v.1.15,2013-07-24 22:57:00,
2013-07-24 19:03:00,70.9,53.4,30.03,ENE,77,0.0,3.0,54,0.00,,,0.00,Wunderground v.1.15,2013-07-24 23:03:00,
2013-07-24 19:09:00,70.3,53.4,30.02,ENE,77,0.0,0.0,55,0.00,,,0.00,Wunderground v.1.15,2013-07-24 23:09:00,
2013-07-24 19:14:00,69.7,53.3,30.03,ENE,77,0.0,0.0,56,0.00,,,0.00,Wunderground v.1.15,2013-07-24 23:14:00,
2013-07-24 19:19:00,69.5,53.6,30.02,ENE,77,0.0,1.0,57,0.00,,,0.00,Wunderground v.1.15,2013-07-24 23:19:00,
2013-07-24 19:25:00,69.4,53.5,30.03,ENE,76,0.0,0.0,57,0.00,,,0.00,Wunderground v.1.15,2013-07-24 23:25:00,
2013-07-24 19:30:00,69.6,53.7,30.03,NE,45,1.0,4.0,57,0.00,,,0.00,Wunderground v.1.15,2013-07-24 23:30:00,
2013-07-24 19:36:00,69.9,54.0,30.03,NE,52,1.0,1.0,57,0.00,,,0.00,Wunderground v.1.15,2013-07-24 23:36:00,
2013-07-24 19:42:00,70.2,53.3,30.03,ENE,78,1.0,1.0,55,0.00,,,0.00,Wunderground v.1.15,2013-07-24 23:42:00,
2013-07-24 19:48:00,70.4,53.5,30.03,East,82,0.0,0.0,55,0.00,,,0.00,Wunderground v.1.15,2013-07-24 23:48:00,
2013-07-24 19:54:00,70.3,53.9,30.03,East,88,0.0,1.0,56,0.00,,,0.00,Wunderground v.1.15,2013-07-24 23:54:00,
2013-07-24 19:59:00,70.0,53.6,30.03,East,88,0.0,0.0,56,0.00,,,0.00,Wunderground v.1.15,2013-07-24 23:59:00,
2013-07-24 20:05:00,69.7,53.3,30.03,East,86,0.0,0.0,56,0.00,,,0.00,Wunderground v.1.15,2013-07-25 00:05:00,
2013-07-24 20:10:00,69.4,53.0,30.03,East,86,0.0,1.0,56,0.00,,,0.00,Wunderground v.1.15,2013-07-25 00:10:00,
2013-07-24 20:16:00,68.9,53.0,30.03,NE,37,1.0,2.0,57,0.00,,,0.00,Wunderground v.1.15,2013-07-25 00:16:00,
2013-07-24 20:21:00,68.5,53.1,30.03,NE,37,1.0,2.0,58,0.00,,,0.00,Wunderground v.1.15,2013-07-25 00:21:00,
2013-07-24 20:26:00,68.1,53.7,30.04,NE,37,0.0,0.0,60,0.00,,,0.00,Wunderground v.1.15,2013-07-25 00:26:00,
2013-07-24 20:31:00,67.7,54.2,30.04,NE,37,0.0,0.0,62,0.00,,,0.00,Wunderground v.1.15,2013-07-25 00:31:00,
2013-07-24 20:37:00,67.1,53.6,30.04,NE,42,0.0,0.0,62,0.00,,,0.00,Wunderground v.1.15,2013-07-25 00:37:00,
2013-07-24 20:42:00,66.8,53.8,30.04,NE,42,0.0,0.0,63,0.00,,,0.00,Wunderground v.1.15,2013-07-25 00:42:00,
2013-07-24 20:48:00,66.4,53.4,30.04,NE,42,0.0,2.0,63,0.00,,,0.00,Wunderground v.1.15,2013-07-25 00:48:00,
2013-07-24 20:54:00,65.9,53.4,30.04,NE,42,0.0,2.0,64,0.00,,,0.00,Wunderground v.1.15,2013-07-25 00:54:00,
2013-07-24 21:00:00,65.5,53.4,30.05,NE,42,0.0,0.0,65,0.00,,,0.00,Wunderground v.1.15,2013-07-25 01:00:00,
2013-07-24 21:06:00,65.1,53.5,30.05,NE,42,0.0,0.0,66,0.00,,,0.00,Wunderground v.1.15,2013-07-25 01:06:00,
2013-07-24 21:12:00,64.6,53.8,30.05,NE,42,0.0,0.0,68,0.00,,,0.00,Wunderground v.1.15,2013-07-25 01:12:00,
2013-07-24 21:17:00,64.1,53.7,30.05,NE,42,0.0,0.0,69,0.00,,,0.00,Wunderground v.1.15,2013-07-25 01:17:00,
2013-07-24 21:22:00,63.4,53.8,30.05,NE,42,0.0,0.0,71,0.00,,,0.00,Wunderground v.1.15,2013-07-25 01:22:00,
2013-07-24 21:28:00,62.6,54.2,30.06,NE,42,0.0,0.0,74,0.00,,,0.00,Wunderground v.1.15,2013-07-25 01:28:00,
2013-07-24 21:34:00,62.0,54.0,30.06,NE,42,0.0,0.0,75,0.00,,,0.00,Wunderground v.1.15,2013-07-25 01:34:00,
2013-07-24 21:40:00,61.4,53.8,30.06,NE,42,0.0,0.0,76,0.00,,,0.00,Wunderground v.1.15,2013-07-25 01:40:00,
2013-07-24 21:46:00,60.8,53.5,30.06,NE,42,0.0,0.0,77,0.00,,,0.00,Wunderground v.1.15,2013-07-25 01:46:00,
2013-07-24 21:51:00,60.4,53.5,30.06,NE,42,0.0,0.0,78,0.00,,,0.00,Wunderground v.1.15,2013-07-25 01:51:00,
2013-07-24 21:56:00,60.1,53.6,30.06,NE,42,0.0,0.0,79,0.00,,,0.00,Wunderground v.1.15,2013-07-25 01:56:00,
2013-07-24 22:01:00,59.6,53.4,30.06,NE,42,0.0,0.0,80,0.00,,,0.00,Wunderground v.1.15,2013-07-25 02:01:00,
2013-07-24 22:07:00,59.0,53.2,30.07,NE,42,0.0,0.0,81,0.00,,,0.00,Wunderground v.1.15,2013-07-25 02:07:00,
2013-07-24 22:13:00,59.0,53.5,30.07,NE,42,0.0,0.0,82,0.00,,,0.00,Wunderground v.1.15,2013-07-25 02:13:00,
2013-07-24 22:18:00,59.0,53.2,30.07,NE,42,0.0,0.0,81,0.00,,,0.00,Wunderground v.1.15,2013-07-25 02:18:00,
2013-07-24 22:24:00,59.0,53.2,30.07,NE,42,0.0,0.0,81,0.00,,,0.00,Wunderground v.1.15,2013-07-25 02:24:00,
2013-07-24 22:29:00,58.7,52.9,30.07,NE,42,0.0,0.0,81,0.00,,,0.00,Wunderground v.1.15,2013-07-25 02:29:00,
2013-07-24 22:35:00,58.6,52.8,30.07,NE,42,0.0,0.0,81,0.00,,,0.00,Wunderground v.1.15,2013-07-25 02:35:00,
2013-07-24 22:40:00,58.5,53.0,30.07,NE,42,0.0,1.0,82,0.00,,,0.00,Wunderground v.1.15,2013-07-25 02:40:00,
2013-07-24 22:46:00,58.5,53.0,30.07,NE,42,0.0,0.0,82,0.00,,,0.00,Wunderground v.1.15,2013-07-25 02:46:00,
2013-07-24 22:51:00,58.7,53.2,30.07,NE,42,0.0,1.0,82,0.00,,,0.00,Wunderground v.1.15,2013-07-25 02:51:00,
2013-07-24 22:57:00,58.9,53.1,30.07,NE,42,0.0,0.0,81,0.00,,,0.00,Wunderground v.1.15,2013-07-25 02:57:00,
2013-07-24 23:02:00,59.0,53.2,30.07,NE,42,0.0,0.0,81,0.00,,,0.00,Wunderground v.1.15,2013-07-25 03:02:00,
2013-07-24 23:08:00,59.0,53.2,30.07,NE,42,0.0,0.0,81,0.00,,,0.00,Wunderground v.1.15,2013-07-25 03:08:00,
2013-07-24 23:14:00,59.0,53.2,30.07,NE,42,0.0,0.0,81,0.00,,,0.00,Wunderground v.1.15,2013-07-25 03:14:00,
2013-07-24 23:19:00,58.9,53.1,30.07,NE,42,0.0,0.0,81,0.00,,,0.00,Wunderground v.1.15,2013-07-25 03:19:00,
2013-07-24 23:25:00,58.6,53.1,30.07,NE,42,0.0,0.0,82,0.00,,,0.00,Wunderground v.1.15,2013-07-25 03:25:00,
2013-07-24 23:31:00,58.4,52.9,30.07,NE,42,0.0,0.0,82,0.00,,,0.00,Wunderground v.1.15,2013-07-25 03:31:00,
2013-07-24 23:36:00,58.1,53.0,30.07,NE,42,0.0,0.0,83,0.00,,,0.00,Wunderground v.1.15,2013-07-25 03:36:00,
2013-07-24 23:42:00,57.8,52.7,30.07,NE,42,0.0,0.0,83,0.00,,,0.00,Wunderground v.1.15,2013-07-25 03:42:00,
2013-07-24 23:48:00,57.6,52.8,30.07,NE,42,0.0,0.0,84,0.00,,,0.00,Wunderground v.1.15,2013-07-25 03:48:00,
2013-07-24 23:53:00,57.3,52.5,30.07,NE,42,0.0,0.0,84,0.00,,,0.00,Wunderground v.1.15,2013-07-25 03:53:00,
2013-07-24 23:58:00,56.8,52.3,30.07,NE,42,0.0,0.0,85,0.00,,,0.00,Wunderground v.1.15,2013-07-25 03:58:00,